Weather History for KLWM - February, 2012

Change the Weather History Date:

Friday, February 3, 2012

  Actual Average Record
Temperature  
Mean Temperature 30 °F -  
Max Temperature 37 °F 38 °F 59 °F (1970)
Min Temperature 23 °F 17 °F -14 °F (1931)
Degree Days  
Heating Degree Days 35    
Moisture  
Dew Point 13 °F    
Average Humidity 50    
Maximum Humidity 64    
Minimum Humidity 30    
Precipitation  
Precipitation 0.00 in - - ()
Sea Level Pressure  
Sea Level Pressure 30.32 in    
Wind  
Wind Speed 8 mph (NW)    
Max Wind Speed 14 mph    
Max Gust Speed 21 mph    
Visibility 10 miles    
Events      
Averages and records for this station are not official NWS values.
T = Trace of Precipitation, MM = Missing Value Source: NWS Daily Summary

Daily Weather History Graph

Daily Weather History Graph

Search for Another Location

Airport or City:

Trip Planner

Search our weather history database for the weather conditions in past years. The results will help you decide how hot, cold, wet, or windy it might be!

Date:

Astronomy

Feb. 03, 2012 Rise Set
Actual Time 6:57 AM EST 4:59 PM EST
Civil Twilight 6:27 AM EST 5:29 PM EST
Nautical Twilight 5:53 AM EST 6:03 PM EST
Astronomical Twilight 5:20 AM EST 6:36 PM EST
Moon 12:55 PM EST (2/3) 3:33 AM EST (2/3)
Length of Visible Light 11h 02m
Length of Day
10h 02m
Waxing Gibbous, 81% of the Moon is Illuminated
Feb 3
Waxing Gibbous
Feb 7
Full
Feb 14
Last Quarter
Feb 21
New
Feb 29
First Quarter

Hourly Weather History & Observations

Time (EST) Temp. Windchill Dew Point Humidity Pressure Visibility Wind Dir Wind Speed Gust Speed Precip Events Conditions
12:54 AM 30.0 °F 23.2 °F 18.0 °F 61% 30.24 in 10.0 mi North 6.9 mph - N/A   Overcast
1:54 AM 30.0 °F 21.7 °F 19.0 °F 64% 30.25 in 10.0 mi NNW 9.2 mph - N/A   Overcast
2:54 AM 30.0 °F 22.4 °F 17.1 °F 59% 30.26 in 10.0 mi NNW 8.1 mph - N/A   Overcast
3:26 AM 28.4 °F 20.4 °F 15.8 °F 59% 30.26 in 10.0 mi NW 8.1 mph - N/A   Overcast
3:54 AM 28.9 °F 21.9 °F 16.0 °F 58% 30.28 in 10.0 mi NNW 6.9 mph - N/A   Overcast
4:54 AM 27.0 °F 18.0 °F 15.1 °F 61% 30.31 in 10.0 mi WNW 9.2 mph - N/A   Overcast
5:54 AM 25.0 °F 18.1 °F 12.9 °F 60% 30.34 in 10.0 mi NW 5.8 mph - N/A   Overcast
6:22 AM 24.8 °F 15.3 °F 12.2 °F 59% 30.34 in 10.0 mi NNW 9.2 mph - N/A   Scattered Clouds
6:54 AM 23.0 °F 13.9 °F 12.2 °F 63% 30.35 in 10.0 mi NNW 8.1 mph - N/A   Clear
7:54 AM 24.1 °F 15.2 °F 12.0 °F 60% 30.38 in 10.0 mi NW 8.1 mph - N/A   Clear
8:54 AM 26.1 °F 15.6 °F 10.9 °F 53% 30.40 in 10.0 mi NW 11.5 mph - N/A   Clear
9:54 AM 28.0 °F 19.3 °F 10.0 °F 47% 30.39 in 10.0 mi NW 9.2 mph - N/A   Clear
10:54 AM 30.2 °F 21.9 °F 10.4 °F 44% 30.37 in 10.0 mi NW 9.2 mph - N/A   Clear
11:54 AM 33.1 °F 23.9 °F 9.0 °F 37% 30.35 in 10.0 mi NW 12.7 mph 19.6 mph N/A   Clear
12:54 PM 36.0 °F 28.5 °F 7.0 °F 30% 30.32 in 10.0 mi NW 10.4 mph 20.7 mph N/A   Clear
1:54 PM 37.0 °F 30.4 °F 7.0 °F 29% 30.31 in 10.0 mi NW 9.2 mph - N/A   Clear
2:54 PM 37.9 °F 30.9 °F 9.0 °F 30% 30.32 in 10.0 mi NW 10.4 mph 18.4 mph N/A   Clear
3:54 PM 37.0 °F 28.5 °F 10.0 °F 33% 30.32 in 10.0 mi NW 13.8 mph 20.7 mph N/A   Clear
4:54 PM 35.1 °F 27.4 °F 12.0 °F 39% 30.32 in 10.0 mi NW 10.4 mph - N/A   Clear
5:54 PM 34.0 °F 31.0 °F 12.0 °F 40% 30.34 in 10.0 mi WNW 3.5 mph - N/A   Clear
6:54 PM 33.1 °F 28.7 °F 12.9 °F 43% 30.33 in 10.0 mi West 4.6 mph - N/A   Clear
7:54 PM 30.9 °F - 14.0 °F 50% 30.32 in 10.0 mi Calm Calm - N/A   Partly Cloudy
8:54 PM 30.9 °F 25.2 °F 15.1 °F 52% 30.31 in 10.0 mi SSW 5.8 mph - N/A   Partly Cloudy
9:54 PM 33.1 °F 30.0 °F 15.1 °F 48% 30.30 in 10.0 mi SSW 3.5 mph - N/A   Overcast
10:54 PM 33.1 °F 28.7 °F 16.0 °F 50% 30.27 in 10.0 mi SSW 4.6 mph - N/A   Overcast
11:54 PM 33.1 °F 30.0 °F 17.1 °F 52% 30.27 in 10.0 mi SSW 3.5 mph - N/A   Overcast